{"data":{"norad_id":67890,"intl_designator":"2026-035M","name":"STARLINK-36363","alt_names":[],"object_type":"PAYLOAD","status":"ACTIVE","operator":null,"country":"US","launch_date":"2026-02-21","launch_site_code":"AFWTR","launch_vehicle":null,"mission":null,"orbit_class":"UNKNOWN","rcs_meters":null,"size_class":null,"mass_kg":null,"dimensions":null,"purposes":["comms"],"wikipedia_slug":null,"has_3d_model":false,"image_url":null,"decayed_at":null,"tle_current":{"epoch":"2026-09-19T13:05:31.243200Z","epoch_age_seconds":145783,"freshness":"FRESH","line1":"1 67890U 26035M   26262.54550050  .00014648  00000+0  45532-3 0  9992","line2":"2 67890  97.2845 194.3619 0001971  88.3970 271.7499 15.33433664 33691","mean_motion":15.33433664,"eccentricity":0.0001971,"inclination_deg":97.2845,"raan_deg":194.3619,"arg_perigee_deg":88.397,"mean_anomaly_deg":271.7499,"bstar":0.00045532,"rev_number":3369,"period_min":93.906898864065,"perigee_km":464.22800663614,"apogee_km":466.92579865657,"semimajor_km":6843.7139026464,"source":"CELESTRAK","updated_at":"2026-09-20T09:00:43.697648Z"}}}